Погода в Гороховце

Россия / Владимирская область     56°12′06″N   42°41′28″E
темп.,
°C
ветер,
м/с
пор.,
м/с
влажн.,
%
обл.,
%
осадки,
мм/ч
давл.,
гПа
погр.,
м
2 декабря, чт
чт200:00−3зюз4991100 0.6 992911
03:00−4з5988100 1.4 994804
06:00−5з598198 0.2 996751
09:00−5зюз598099 0.2 999674
12:00−5з5874100 0.0 1001769
15:00−5зюз4874100 0.0 1002757
18:00−4юз4972100 0.0 1003683
21:00−4ююз41071100 0.0 1002639
3 декабря, пт
пт300:00−4ю4119199 0.1 1001651
03:00−3ююз41195100 0.5 1000492
06:00−1юз5129397 0.4 1000526
09:000юз41298100 0.6 1001767
12:00+2юз51289100 0.1 1003691
15:00+1ююз41091100 0.1 1004475
18:00+1ю41086100 0.0 1005474
21:00+1ю51398100 0.9 1004671
4 декабря, сб
сб400:00+4ю71592100 0.9 1001874
03:00+4ююз71494100 1.8 9981014
06:00+1з61197100 3.6 999688
09:000зюз5118671 4.1 1002776
12:00−1зюз6118169 0.0 1004904
15:00−1зюз61081100 0.1 10051168
18:00−2зюз5117698 0.1 1007897
21:00−3зюз598296 0.1 1009924
5 декабря, вс
вс500:00−3з498396 0.1 1011793
03:00−4з588496 0.1 1013778
06:00−5з4884100 0.0 1014619
09:00−5зсз478298 0.1 1017602
12:00−5зсз4672100 0.0 1019813
15:00−5зсз3572100 0.0 1020741
18:00−6ссз238188 0.0 1022476
21:00−8с238296 0.0 1024298
6 декабря, пн
пн600:00−8ссв2376100 0.0 1026303
03:00−8св2376100 0.0 1027391
06:00−8св357392 0.0 1028397
09:00−9всв4670100 0.0 1030370
12:00−8в466197 0.0 1030455
15:00−8в4863100 0.0 1030445
18:00−8в5965100 0.0 1031417
21:00−8вюв51167100 0.0 1030399